College Station, AR

5:50 PM CDT on July 29, 2016 (GMT -0500)
Adams

Weather History for KLIT - January, 2013

Change the Weather History Date:

Wednesday, January 9, 2013

  Actual Average Record
Temperature  
Mean Temperature 50 °F 41 °F  
Max Temperature 53 °F 50 °F 77 °F (1957)
Min Temperature 47 °F 31 °F -5 °F (1886)
Degree Days  
Heating Degree Days 22 24  
Month to date heating degree days 233 216  
Since 1 July heating degree days 1304 1413  
Cooling Degree Days 0 0  
Month to date cooling degree days 0 0  
Year to date cooling degree days 0 0  
Moisture  
Dew Point 48 °F    
Average Humidity 93    
Maximum Humidity 100    
Minimum Humidity 86    
Precipitation  
Precipitation 1.40 in 0.12 in 2.87 in (1965)
Month to date precipitation 1.41 1.14  
Year to date precipitation 1.41 1.14  
Snow  
Snow 0.00 in 0.00 in 5.60 in (2011)
Month to date snowfall 0.0 0.4  
Since 1 July snowfall 10.3 0.6  
Snow Depth 0.00 in    
Sea Level Pressure  
Sea Level Pressure 30.27 in    
Wind  
Wind Speed 10 mph (NE)    
Max Wind Speed 22 mph    
Max Gust Speed 26 mph    
Visibility 3 miles    
Events Rain    
T = Trace of Precipitation, MM = Missing Value Source: NWS Daily Summary

Daily Weather History Graph

Daily Weather History Graph

Search for Another Location

Airport or City:

Trip Planner

Search our weather history database for the weather conditions in past years. The results will help you decide how hot, cold, wet, or windy it might be!

Date:

Astronomy

Jan. 09, 2013 Rise Set
Actual Time 7:16 AM CST 5:15 PM CST
Civil Twilight 6:49 AM CST 5:43 PM CST
Nautical Twilight 6:17 AM CST 6:14 PM CST
Astronomical Twilight 5:47 AM CST 6:45 PM CST
Moon 4:56 AM CST (1/9) 3:18 PM CST (1/9)
Length of Visible Light 10h 54m
Length of Day
9h 59m
Waning Crescent, 6% of the Moon is Illuminated
Jan 9
Waning Crescent
Jan 11
New
Jan 18
First Quarter
Jan 26
Full
Feb 3
Last Quarter

Hourly Weather History & Observations

Time (CST) Temp. Dew Point Humidity Pressure Visibility Wind Dir Wind Speed Gust Speed Precip Events Conditions
12:53 AM 48.9 °F 44.1 °F 83% 30.23 in 10.0 mi North 3.5 mph - 0.00 in Rain Light Rain
1:53 AM 48.0 °F 44.1 °F 86% 30.22 in 10.0 mi NNE 4.6 mph - 0.02 in   Overcast
2:53 AM 48.0 °F 45.0 °F 89% 30.24 in 4.0 mi NNE 3.5 mph - 0.00 in Rain Light Rain
3:53 AM 48.0 °F 45.0 °F 89% 30.22 in 4.0 mi East 3.5 mph - 0.02 in Rain Light Rain
4:53 AM 48.0 °F 46.0 °F 93% 30.22 in 6.0 mi ESE 4.6 mph - 0.00 in   Overcast
5:41 AM 48.2 °F 46.4 °F 93% 30.24 in 6.0 mi North 8.1 mph - N/A   Overcast
5:53 AM 48.0 °F 46.0 °F 93% 30.25 in 4.0 mi North 8.1 mph - N/A   Overcast
5:57 AM 48.2 °F 46.4 °F 93% 30.25 in 5.0 mi North 5.8 mph - N/A   Overcast
6:53 AM 48.9 °F 46.0 °F 90% 30.29 in 5.0 mi North 9.2 mph - N/A   Overcast
7:06 AM 48.2 °F 46.4 °F 93% 30.29 in 2.5 mi NNE 9.2 mph - 0.00 in Rain Light Rain
7:09 AM 48.2 °F 46.4 °F 93% 30.29 in 1.5 mi NE 8.1 mph - 0.00 in Rain Light Rain
7:19 AM 48.2 °F 46.4 °F 93% 30.30 in 0.8 mi NE 9.2 mph - 0.01 in Rain Light Rain
7:53 AM 48.9 °F 46.9 °F 93% 30.32 in 0.8 mi NE 8.1 mph - 0.04 in Rain Light Rain
8:30 AM 48.2 °F 46.4 °F 93% 30.31 in 1.2 mi NE 9.2 mph - 0.02 in Rain Light Rain
8:53 AM 50.0 °F 46.9 °F 89% 30.33 in 1.8 mi NE 9.2 mph - 0.02 in   Overcast
9:38 AM 50.0 °F 48.2 °F 94% 30.33 in 0.8 mi NE 4.6 mph - 0.01 in Rain Light Rain
10:53 AM 52.0 °F 50.0 °F 93% 30.32 in 0.8 mi NE 11.5 mph - 0.07 in Rain Light Rain
11:37 AM 51.8 °F 48.2 °F 88% 30.31 in 2.5 mi NE 11.5 mph 23.0 mph 0.01 in   Overcast
11:53 AM 51.1 °F 48.9 °F 92% 30.30 in 3.0 mi NE 12.7 mph - 0.01 in   Overcast
12:53 PM 52.0 °F 50.0 °F 93% 30.28 in 5.0 mi NE 11.5 mph - N/A   Overcast
1:24 PM 51.8 °F 50.0 °F 94% 30.26 in 2.0 mi NE 11.5 mph - 0.01 in Rain Light Rain
1:36 PM 51.8 °F 50.0 °F 94% 30.26 in 1.0 mi NE 10.4 mph - 0.01 in   Overcast
1:53 PM 52.0 °F 51.1 °F 97% 30.26 in 1.0 mi NE 11.5 mph - 0.01 in Rain Light Rain
2:44 PM 51.8 °F 50.0 °F 94% 30.25 in 2.5 mi NE 11.5 mph - 0.04 in Rain Light Rain
2:53 PM 52.0 °F 50.7 °F 95% 30.26 in 2.5 mi NE 11.5 mph - 0.05 in Rain Light Rain
3:20 PM 51.8 °F 50.0 °F 94% 30.25 in 2.5 mi NE 10.4 mph - 0.03 in Rain Rain
3:53 PM 53.1 °F 50.9 °F 92% 30.27 in 2.5 mi NE 11.5 mph - 0.08 in Rain Rain
4:53 PM 52.0 °F 51.3 °F 97% 30.27 in 2.5 mi NE 11.5 mph - 0.12 in Rain Rain
5:53 PM 51.1 °F 49.6 °F 95% 30.28 in 2.5 mi NE 11.5 mph - 0.12 in Rain Rain
6:53 PM 51.1 °F 50.0 °F 96% 30.29 in 2.5 mi NE 11.5 mph - 0.20 in Rain Rain
7:53 PM 52.5 °F 50.7 °F 94% 30.30 in 3.0 mi ENE 9.2 mph - 0.14 in Rain Rain
8:05 PM 51.8 °F 51.8 °F 100% 30.29 in 2.5 mi ENE 11.5 mph - 0.04 in Rain Heavy Rain
8:53 PM 52.7 °F 50.9 °F 94% 30.29 in 2.5 mi ENE 11.5 mph - 0.24 in Rain Rain
9:34 PM 51.8 °F 50.0 °F 94% 30.27 in 3.0 mi ENE 12.7 mph - 0.09 in Rain Rain
9:53 PM 52.2 °F 50.4 °F 94% 30.27 in 4.0 mi ENE 13.8 mph - 0.12 in Rain Rain
10:53 PM 52.5 °F 50.7 °F 94% 30.26 in 8.0 mi ENE 15.0 mph - 0.05 in Rain Light Rain
11:53 PM 52.0 °F 50.0 °F 93% 30.22 in 5.0 mi ENE 19.6 mph - 0.06 in Rain Rain